• In Latvia
  • List of Countries
  • For 7 days
  • Water Temperature
  • Satellite Maps
  • Weather Map
  • Weather Widgets
  • user-avatar
    Login

    Hourly Weather Riga

    Today, 29 June, Thursday

    Time Temperature Precipitation Wind Pressure Humidity
    00:00 +12°C° 0 mm 4 mps 757 mmHg 75%
    01:00 +12°C° 0 mm 4 mps 757 mmHg 75%
    02:00 +12°C° 0 mm 4 mps 757 mmHg 75%
    03:00 +12°C° 0 mm 4 mps 756 mmHg 73%
    04:00 +13°C° 0 mm 5 mps 756 mmHg 72%
    05:00 +13°C° 0 mm 5 mps 755 mmHg 71%
    06:00 +14°C° 0 mm 5 mps 755 mmHg 69%
    07:00 +16°C° 0 mm 6 mps 755 mmHg 66%
    08:00 +19°C° 0 mm 6 mps 754 mmHg 64%
    09:00 +19°C° 0.2 mm 6 mps 754 mmHg 69%
    10:00 +19°C° 0.2 mm 6 mps 754 mmHg 73%
    11:00 +20°C° 0.2 mm 6 mps 753 mmHg 78%
    12:00 +20°C° 0.6 mm 6 mps 753 mmHg 81%
    13:00 +20°C° 0.6 mm 6 mps 752 mmHg 84%
    14:00 +21°C° 0.6 mm 6 mps 752 mmHg 87%
    15:00 +21°C° 1 mm 6 mps 752 mmHg 89%
    16:00 +21°C° 1 mm 6 mps 751 mmHg 91%
    17:00 +22°C° 1 mm 6 mps 751 mmHg 93%
    18:00 +22°C° 1.3 mm 5 mps 750 mmHg 94%
    19:00 +22°C° 1.3 mm 5 mps 750 mmHg 94%
    20:00 +21°C° 1.3 mm 5 mps 749 mmHg 95%
    21:00 +21°C° 1.2 mm 5 mps 749 mmHg 95%
    22:00 +21°C° 1.2 mm 5 mps 749 mmHg 95%
    23:00 +20°C° 1.2 mm 5 mps 748 mmHg 96%

    Tomorrow, 30 June, Friday

    Time Temperature Precipitation Wind Pressure Humidity
    00:00 +20°C° 1.1 mm 5 mps 748 mmHg 96%
    01:00 +20°C° 1.1 mm 5 mps 748 mmHg 97%
    02:00 +20°C° 1.1 mm 5 mps 747 mmHg 97%
    03:00 +20°C° 0.8 mm 5 mps 747 mmHg 97%
    04:00 +19°C° 0.8 mm 5 mps 746 mmHg 97%
    05:00 +19°C° 0.8 mm 4 mps 746 mmHg 98%
    06:00 +20°C° 0.8 mm 4 mps 746 mmHg 96%
    07:00 +20°C° 0.8 mm 4 mps 746 mmHg 95%
    08:00 +21°C° 0.8 mm 4 mps 746 mmHg 94%
    09:00 +21°C° 0.2 mm 4 mps 746 mmHg 93%
    10:00 +20°C° 0.2 mm 4 mps 746 mmHg 92%
    11:00 +20°C° 0.2 mm 4 mps 746 mmHg 91%
    12:00 +20°C° 0.2 mm 4 mps 746 mmHg 89%
    13:00 +20°C° 0.2 mm 4 mps 746 mmHg 88%
    14:00 +20°C° 0.2 mm 5 mps 746 mmHg 87%
    15:00 +20°C° 0.2 mm 5 mps 746 mmHg 87%
    16:00 +20°C° 0.2 mm 5 mps 746 mmHg 88%
    17:00 +19°C° 0.2 mm 5 mps 746 mmHg 88%
    18:00 +19°C° 0.1 mm 5 mps 746 mmHg 89%
    19:00 +17°C° 0.1 mm 5 mps 746 mmHg 90%
    20:00 +17°C° 0.1 mm 5 mps 746 mmHg 91%
    21:00 +16°C° 0.1 mm 5 mps 747 mmHg 92%
    22:00 +16°C° 0.1 mm 5 mps 747 mmHg 93%
    23:00 +15°C° 0.1 mm 6 mps 747 mmHg 94%

    Day after tomorrow, 1 July, Saturday

    Time Temperature Precipitation Wind Pressure Humidity
    00:00 +15°C° 0.2 mm 6 mps 747 mmHg 94%
    01:00 +15°C° 0.2 mm 6 mps 747 mmHg 94%
    02:00 +15°C° 0.2 mm 6 mps 747 mmHg 95%
    03:00 +15°C° 0.4 mm 6 mps 747 mmHg 95%
    04:00 +15°C° 0.4 mm 6 mps 747 mmHg 95%
    05:00 +15°C° 0.4 mm 6 mps 748 mmHg 95%
    06:00 +15°C° 0.5 mm 6 mps 748 mmHg 95%
    07:00 +15°C° 0.5 mm 6 mps 748 mmHg 94%
    08:00 +16°C° 0.5 mm 6 mps 748 mmHg 93%
    09:00 +16°C° 0.4 mm 6 mps 748 mmHg 89%
    10:00 +17°C° 0.4 mm 7 mps 749 mmHg 84%
    11:00 +18°C° 0.4 mm 7 mps 749 mmHg 80%
    12:00 +20°C° 0.1 mm 6 mps 750 mmHg 74%
    13:00 +21°C° 0.1 mm 6 mps 750 mmHg 67%
    14:00 +22°C° 0.1 mm 6 mps 750 mmHg 61%
    15:00 +22°C° 0.1 mm 5 mps 750 mmHg 64%
    16:00 +22°C° 0.1 mm 4 mps 750 mmHg 67%
    17:00 +22°C° 0.1 mm 3 mps 750 mmHg 69%
    18:00 +20°C° 0.3 mm 3 mps 750 mmHg 76%
    19:00 +19°C° 0.3 mm 3 mps 750 mmHg 84%
    20:00 +18°C° 0.3 mm 3 mps 750 mmHg 91%
    21:00 +17°C° 0.1 mm 3 mps 750 mmHg 92%
    22:00 +16°C° 0.1 mm 3 mps 750 mmHg 94%
    23:00 +14°C° 0.1 mm 3 mps 750 mmHg 96%

    2 July, Sunday

    Time Temperature Precipitation Wind Pressure Humidity
    00:00 +14°C° 0 mm 3 mps 750 mmHg 96%
    01:00 +14°C° 0 mm 3 mps 750 mmHg 97%
    02:00 +14°C° 0 mm 3 mps 750 mmHg 97%
    03:00 +14°C° 0.1 mm 3 mps 750 mmHg 97%
    04:00 +14°C° 0.1 mm 3 mps 749 mmHg 97%
    05:00 +14°C° 0.1 mm 3 mps 749 mmHg 97%
    06:00 +16°C° 0.1 mm 3 mps 749 mmHg 95%
    07:00 +17°C° 0.1 mm 4 mps 749 mmHg 93%
    08:00 +18°C° 0.1 mm 4 mps 749 mmHg 91%
    09:00 +19°C° 0.2 mm 4 mps 749 mmHg 84%
    10:00 +20°C° 0.2 mm 4 mps 749 mmHg 78%
    11:00 +21°C° 0.2 mm 4 mps 749 mmHg 71%
    12:00 +21°C° 0.3 mm 4 mps 749 mmHg 70%
    13:00 +21°C° 0.3 mm 4 mps 749 mmHg 70%
    14:00 +21°C° 0.3 mm 4 mps 749 mmHg 69%
    15:00 +21°C° 0.3 mm 4 mps 749 mmHg 72%
    16:00 +21°C° 0.3 mm 4 mps 749 mmHg 75%
    17:00 +20°C° 0.3 mm 4 mps 748 mmHg 77%
    18:00 +19°C° 0.3 mm 4 mps 748 mmHg 83%
    19:00 +18°C° 0.3 mm 4 mps 748 mmHg 89%
    20:00 +17°C° 0.3 mm 3 mps 748 mmHg 95%
    21:00 +15°C° 0.2 mm 4 mps 748 mmHg 96%
    22:00 +15°C° 0.2 mm 4 mps 748 mmHg 96%
    23:00 +14°C° 0.2 mm 4 mps 748 mmHg 97%

    3 July, Monday

    Time Temperature Precipitation Wind Pressure Humidity
    00:00 +14°C° 0.4 mm 4 mps 748 mmHg 97%
    01:00 +14°C° 0.4 mm 4 mps 748 mmHg 97%
    02:00 +14°C° 0.4 mm 5 mps 748 mmHg 97%
    03:00 +14°C° 0.2 mm 5 mps 748 mmHg 96%
    04:00 +13°C° 0.2 mm 5 mps 748 mmHg 96%
    05:00 +13°C° 0.2 mm 5 mps 748 mmHg 96%
    06:00 +14°C° 0.1 mm 5 mps 749 mmHg 94%
    07:00 +14°C° 0.1 mm 6 mps 749 mmHg 92%
    08:00 +14°C° 0.1 mm 6 mps 749 mmHg 90%
    09:00 +14°C° 0.2 mm 6 mps 749 mmHg 89%
    10:00 +14°C° 0.2 mm 6 mps 750 mmHg 87%
    11:00 +15°C° 0.2 mm 6 mps 750 mmHg 85%
    12:00 +15°C° 0.1 mm 6 mps 750 mmHg 81%
    13:00 +15°C° 0.1 mm 7 mps 751 mmHg 76%
    14:00 +15°C° 0.1 mm 7 mps 751 mmHg 72%
    15:00 +15°C° 0 mm 7 mps 751 mmHg 70%
    16:00 +15°C° 0 mm 7 mps 751 mmHg 69%
    17:00 +15°C° 0 mm 6 mps 751 mmHg 67%
    18:00 +14°C° 0 mm 6 mps 751 mmHg 68%
    19:00 +14°C° 0 mm 6 mps 751 mmHg 70%
    20:00 +14°C° 0 mm 5 mps 751 mmHg 71%
    21:00 +13°C° 0 mm 5 mps 751 mmHg 73%
    22:00 +13°C° 0 mm 6 mps 751 mmHg 75%
    23:00 +11°C° 0 mm 6 mps 751 mmHg 77%

    4 July, Tuesday

    Time Temperature Precipitation Wind Pressure Humidity
    00:00 +11°C° 0 mm 6 mps 751 mmHg 77%
    01:00 +11°C° 0 mm 7 mps 750 mmHg 78%
    02:00 +11°C° 0 mm 7 mps 750 mmHg 78%
    03:00 +11°C° 0 mm 7 mps 750 mmHg 79%
    04:00 +11°C° 0 mm 7 mps 750 mmHg 80%
    05:00 +11°C° 0 mm 7 mps 750 mmHg 81%
    06:00 +12°C° 0.1 mm 7 mps 749 mmHg 79%
    07:00 +12°C° 0.1 mm 7 mps 749 mmHg 76%
    08:00 +13°C° 0.1 mm 8 mps 749 mmHg 74%
    09:00 +13°C° 0.2 mm 8 mps 749 mmHg 75%
    10:00 +13°C° 0.2 mm 8 mps 750 mmHg 76%
    11:00 +13°C° 0.2 mm 8 mps 750 mmHg 77%
    12:00 +13°C° 0.3 mm 8 mps 750 mmHg 80%
    13:00 +14°C° 0.3 mm 7 mps 750 mmHg 82%
    14:00 +14°C° 0.3 mm 7 mps 750 mmHg 84%
    15:00 +14°C° 0.2 mm 7 mps 750 mmHg 85%
    16:00 +14°C° 0.2 mm 7 mps 750 mmHg 85%
    17:00 +14°C° 0.2 mm 7 mps 750 mmHg 85%
    18:00 +12°C° 0.3 mm 7 mps 750 mmHg 86%
    19:00 +12°C° 0.3 mm 7 mps 750 mmHg 87%
    20:00 +13°C° 0.3 mm 6 mps 750 mmHg 88%
    21:00 +13°C° 0.3 mm 6 mps 750 mmHg 89%
    22:00 +13°C° 0.3 mm 6 mps 750 mmHg 91%
    23:00 +13°C° 0.3 mm 6 mps 750 mmHg 92%
    Show more